www.pogodaiklimat.ru

Погода и климат >> Архив погоды >> Чад >> Сарх


ПОГОДА в Сархе

  • Прогноз погоды в Сархе
  • Монитор погоды в Сархе

АРХИВ ПОГОДЫ в Сархе

Время (UTC), дата Ветер
(напр.,м/с)
 
Видим.   Явления Облачность Т
(С)
Тd
(С)
f
(%)
Тe
(С)
Тes
(С)
Комфортность P
(гПа)
Po
(гПа)
Тmin
(С)
Tmax
(С)
R
(мм)
R24
(мм)
S
(см)
06 10.07 ЮЗ 4 10 км гроза без осадков 9/1 600 м
[Cb cap Ac trans Ci sp]
+23.5 +21.3 87 +30 +31 очень
душно
1011.8 971.0 +22.3 9
12 10.07 З 7 10 км 9/3 900 м
[Cu Sc Ac trans Ci sp]
+31.0 +22.4 60 +40 +42 очень
душно
1010.0 969.7
18 10.07 штиль 0 10 км гроза без осадков 9/3 1500 м
[Cb cap Ac As Ci sp]
+27.6 +22.4 73 +36 +36 очень
душно
1008.6 968.0
21 10.07 В 4 10 км гроза без осадков 10/3 1500 м
[Cb cap Ac As Ci sp]
+25.5 +22.6 84 +34 +34 очень
душно
1009.9 969.5
00 11.07 З 1 10 км гроза без осадков 9/3 600 м
[Cb cap Ac As Ci sp]
+23.6 +22.1 91 +30 +30 очень
душно
1009.1 968.8 3
06 11.07 Ю 2 10 км слаб. дождь 10/3 600 м
[Cb cap Ac As]
+21.5 +19.2 87 +26 +27 душно 1014.1 973.2 +21.0 5
12 11.07 З 2 10 км в посл. час дождь 10/4 600 м
[Sc Ac As]
+24.4 +20.8 80 +30 +34 очень
душно
1012.2 971.2 11
18 11.07 штиль 0 10 км 10/1 600 м
[Sc Ac As]
+25.0 +21.8 82 +32 +32 очень
душно
1011.7 970.7 11
12 12.07 Ю 3 10 км 9/8 600 м
[Cu Sc Ac trans Ci sp]
+28.6 +22.4 69 +37 +40 очень
душно
1013.2 972.6
18 12.07 штиль 0 10 км 9/1 600 м
[Cb cap Ac lent Ci sp]
+27.5 +24.0 81 +38 +38 очень
душно
1011.4 970.8
00 13.07 штиль 0 10 км 10/3 600 м
[Sc Ac As]
+25.9 +23.9 89 +36 +36 очень
душно
1012.5 972.1
06 13.07 штиль 0 10 км 9/1 600 м
[Sc Ac trans Ci sp]
+25.5 +24.1 92 +35 +37 очень
душно
1013.4 972.8 +24.5
18 13.07 З 3 10 км зарница 9/5 600 м
[Cb calv Ac cuf Ci sp]
+29.0 +23.0 70 +39 +39 очень
душно
1009.2 968.9
00 14.07 штиль 0 10 км {гроза, дождь} 9/1 1500 м
[Cb cap Ac As Ci sp]
+22.6 +21.3 92 +30 +30 очень
душно
1011.4 970.9 29
06 14.07 З 2 10 км гроза без осадков 10/8 600 м
[Cb cap Ac As]
+22.0 +21.3 96 +29 +29 очень
душно
1011.4 970.7 +21.4 43
09 14.07 ЮЗ 3 10 км {гроза} 9/5 600 м
[Cb cap Ac trans Ci sp]
+26.5 +22.1 77 +34 +39 очень
душно
1012.9 972.0
12 14.07 ЮЗ 2 10 км {гроза} 6/3 600 м
[Cu hum Ac trans Ci sp]
+29.5 +22.6 66 +39 +49 очень
душно
1010.8 970.2
15 14.07 Ю 2 10 км 9/3 1200 м
[Cb cap Ac trans Ci sp]
+30.0 +22.9 66 +40 +42 очень
душно
1008.8 968.3
18 14.07 0 гроза без осадков н/о +21.1 1009.8 969.0
21 14.07 штиль 0 10 км гроза без осадков 9/3 600 м
[Cb cap Ac trans Ci sp]
+24.0 +21.8 88 +31 +31 очень
душно
1011.4 970.6
00 15.07 штиль 0 10 км гроза без осадков 9/1 1500 м
[Cb cap Ac trans Ci sp]
+24.0 +22.5 91 +31 +31 очень
душно
1011.9 971.4
03 15.07 штиль 0 10 км {гроза} 9/0
[Ac As Ci sp]
+23.1 +21.6 91 +31 +31 очень
душно
1010.6 970.1
06 15.07 С 5 10 км слаб. дождь {гроза} 10/6 600 м
[Cb calv Ac As]
+23.5 +22.2 92 +30 +31 очень
душно
1014.3 973.4 +22.8 0.8
12 15.07 Ю 3 10 км {дождь} 10/0
[Ac As]
+27.0 +20.3 67 +33 +38 очень
душно
1011.3 970.6
18 15.07 штиль 0 10 км 6/0
[Ac trans Ci sp]
+25.8 +23.2 86 +35 +35 очень
душно
1009.4 968.7
21 15.07 штиль 0 10 км 9/0
[Ac trans Ci sp]
+24.5 +22.3 88 +32 +32 очень
душно
1011.8 971.0
00 16.07 штиль 0 10 км 9/0
[Ac trans Ci sp]
+23.3 +22.1 93 +32 +32 очень
душно
1011.2 970.5
03 16.07 штиль 0 10 км 9/0
[Ac trans Ci sp]
+22.8 +21.6 93 +30 +30 очень
душно
1011.2 970.5
06 16.07 штиль 0 10 км 9/1 600 м
[Sc Ac cuf]
+23.8 +22.2 91 +31 +32 очень
душно
1012.8 972.0 +22.4
12 16.07 ЮЗ 4 10 км 9/5 1200 м
[Cb calv Ci sp]
+32.5 +22.5 56 +42 +47 опасность
перегрева
1011.4 971.0
18 16.07 штиль 0 10 км 8/1 600 м
[Sc diur, vesp Ci sp]
+29.3 +24.8 77 +42 +42 опасность
перегрева
1009.1 968.7
00 17.07 штиль 0 10 км 8/0
[Ac trans Cs]
+25.8 +24.0 90 +36 +36 очень
душно
1010.7 970.6

 

Местоположение метеостанции Сарх (Чад): широта 9.15 долгота 18.38 высота над уровнем моря 365 м.

В архиве по умолчанию представлена погода в Сархе за последнюю неделю. Архивные данные за месяц целиком и за предыдущие месяцы, начиная с января 2011 года, Вы можете получить, выбрав интересующий диапазон дат из раскрывающегося списка и нажав кнопку "Ввод!".


*Определитесь, кто Вы:
робот инопланетянин человек

Внимание! Время в таблицах - всемирное. Для получения местного времени необходимо прибавить поправку, которая равна 1 ч.

Смотрите также архив погоды в соседних городах и на ближайших метеорологических станциях:

Погода в Буссо (Чад) (234 км)
Погода в Мунду (Чад) (262 км)
Погода в Ам-Тиман (Чад) (295 км)
Погода в Босангоа (ЦАР) (315 км)
Погода в Монго (Чад) (339 км)
Погода в Пала (Чад) (380 км)
Погода в Бокоро (Чад) (388 км)
Погода в Бамбари (ЦАР) (444 км)
Погода в Ати (Чад) (453 км)
Погода в Буаре (ЦАР) (466 км)

Пояснения к столбцам:

Ветер - указаны скорость ветра в м/с - средняя за 10 мин, порывы в срок и между сроками (в фигурных скобках) и направление, откуда дует ветер: С - северный, СВ - северо-восточный, В - восточный, ЮВ - юго-восточный, Ю - южный, ЮЗ - юго-западный, З - западный, СЗ - северо-западный.
Видимость - горизонтальная дальность видимости в метрах или километрах. При видимости от 1 до 10 км при отсутствии осадков обычно наблюдается дымка, при ухудшении видимости до 1 км и менее - туман. В сухую погоду видимость может ухудшаться дымом, пылью или мглою.
Явления - указаны атмосферные явления, наблюдавшиеся в срок или в последний час перед сроком; фигурными скобками обозначены явления, наблюдавшиеся между сроками (за 1-3 часа до срока); квадратными скобками обозначены град или гололедные отложения с указанием их диаметра в мм.
Облачность - указаны через наклонную черту общая и нижняя облачность в баллах и высота нижней границы облаков в метрах; квадратными скобками обозначены формы облаков: Ci - перистые, Cs - перисто-слоистые, Cc - перисто-кучевые, Ac - высококучевые, As - высокослоистые, Sc - слоисто-кучевые, Ns - слоисто-дождевые, Cu - кучевые, Cb - кучево-дождевые. Подробнее классификацию облаков см. в Атласе облаков (PDF).
T - Температура воздуха - температура, измеренная на высоте 2 м над землей.
Td - Температура точки росы - температура, при понижении до которой содержащийся в воздухе водяной пар достигнет насыщения.
f - Относительная влажность воздуха - влажноcть воздуха, измеренная на высоте 2 м над землей.
Te - Эффективная температура - температура, которую ощущает одетый по сезону человек в тени. Характеристика душности погоды. При расчете учитывается влияние влажности воздуха и скорости ветра на теплоощущения человека.
Tes - Эффективная температура на солнце - температура, которую ощущает человек, с поправкой на солнечный нагрев. Характеристика знойности погоды. Зависит от высоты солнца над горизонтом, облачности и скорости ветра. Ночью, в пасмурную погоду, а также при ветре 12 м/с и более поправка равна нулю.
P - Атмосферное давление - приведенное к уровню моря атмосферное давление.
Po - Атмосферное давление - измеренное на уровне метеостанции атмосферное давление.
Tmin - Минимальная температура - минимум температуры воздуха на высоте 2 м над землей.
Tmax - Максимальная температура - максимум температуры воздуха на высоте 2 м над землей.
R - Количество осадков - Количество выпавших осадков за период времени, мм. При наведении курсора мыши на число - период времени, за который выпало указанное количество осадков.
R24 - Количество осадков - Количество выпавших осадков за 24 часа, мм.
S - Снежный покров - Высота снежного покрова, см. При наведении курсора мыши на число - состояние снежного покрова и степень покрытия местности в баллах.